"2010-08-15 00:00:00",72301,0.585,72.54,21.18,0.149,17.8,107.9256,19.57,20.41,39.62,0,111,13.16,20.39,34.5
"2010-08-15 00:00:30",72302,1.11,88.4,7.362,0.419,17.77,107.9246,19.57,20.44,39.47,0,111,13.16,20.39,50.4
"2010-08-15 00:01:00",72303,0.795,103.9,13.49,0.346,17.73,107.9208,19.56,20.44,39.42,0,111,13.15,20.38,65.9
"2010-08-15 00:01:30",72304,0.987,95.3,6.198,0.149,17.69,107.9211,19.56,20.44,39.55,0,111,13.15,20.38,57.3
"2010-08-15 00:02:00",72305,1.042,87.7,14.62,0.295,17.68,107.9025,19.51,20.43,39.83,0,111,13.15,20.33,49.7
"2010-08-15 00:02:30",72306,1.15,92.9,18.17,0.146,17.68,107.8867,19.47,20.42,40.05,0,111,13.15,20.29,54.9
"2010-08-15 00:03:00",72307,0.933,77.72,13.07,0.359,17.63,107.8867,19.47,20.39,39.93,0,111,13.15,20.29,39.7
"2010-08-15 00:03:30",72308,1.65,56.98,10.27,0.344,17.61,107.8867,19.47,20.39,40.16,0,111.1,13.15,20.29,19.0
"2010-08-15 00:04:00",72309,1.744,66.19,15.7,0.405,17.68,107.8867,19.47,20.4,40.2,0,111,13.15,20.29,28.2
"2010-08-15 00:04:30",72310,0.878,113.1,11.68,0.235,17.61,107.8867,19.47,20.39,40.13,0,111.1,13.15,20.29,75.1
"2010-08-15 00:05:00",72311,1.192,83.7,18.46,0.47,17.58,107.8867,19.47,20.38,40.11,0,111.1,13.15,20.29,45.7
"2010-08-15 00:05:30",72312,1.645,111.6,15.86,0.227,17.48,107.8867,19.47,20.37,39.98,0,111.1,13.16,20.29,73.6
"2010-08-15 00:06:00",72313,1.126,72.77,7.608,0.176,17.55,107.8865,19.47,20.37,40.02,0,111.1,13.16,20.29,34.8
"2010-08-15 00:06:30",72314,1.936,70.44,6.559,0.495,17.52,107.8772,19.44,20.35,40.25,0,111.1,13.16,20.26,32.4
"2010-08-15 00:07:00",72315,2.474,63.63,10,0.22,17.51,107.8556,19.39,20.33,40.3,0,111.1,13.16,20.21,25.6
"2010-08-15 00:07:30",72316,3.09,84.4,9.04,0.377,17.61,107.853,19.38,20.3,40.4,0,111.1,13.16,20.20,46.4
"2010-08-15 00:08:00",72317,3.482,75.14,6.388,0.707,17.71,107.853,19.38,20.3,40.46,0,111.1,13.16,20.20,37.1
"2010-08-15 00:08:30",72318,2.678,78.14,12.75,0.409,17.79,107.853,19.38,20.3,40.59,0,111.1,13.16,20.20,40.1
"2010-08-15 00:09:00",72319,2.032,106.8,12.65,0.186,17.78,107.8556,19.39,20.29,40.47,0,111.1,13.16,20.21,68.8
"2010-08-15 00:09:30",72320,1.392,114.1,10.57,0.289,17.84,107.8592,19.4,20.28,40.44,0,111.1,13.16,20.22,76.1
"2010-08-15 00:10:00",72321,1.286,89.6,12.35,0.175,17.82,107.8671,19.42,20.3,40.32,0,111.1,13.16,20.24,51.6
"2010-08-15 00:10:30",72322,1.299,62.27,9.67,0.177,17.87,107.8848,19.46,20.29,40.28,0,111.1,13.16,20.28,24.3
"2010-08-15 00:11:00",72323,1.615,51.98,7.561,0.199,17.81,107.8867,19.47,20.32,40.23,0,111.1,13.16,20.29,14.0
"2010-08-15 00:11:30",72324,2.249,33.52,8.81,0.319,17.81,107.9059,19.52,20.34,40.14,0,111.1,13.16,20.34,355.5
"2010-08-15 00:12:00",72325,2.561,21.32,6.045,0.112,17.85,107.9204,19.56,20.36,40.12,0,111.1,13.16,20.38,343.3
"2010-08-15 00:12:30",72326,2.553,27.11,4.495,0.243,17.85,107.9353,19.59,20.39,40.01,0,111.1,13.16,20.41,349.1
"2010-08-15 00:13:00",72327,2.473,45.31,7.815,0.505,17.88,107.9536,19.64,20.42,39.87,0,111.1,13.16,20.46,7.3
"2010-08-15 00:13:30",72328,2.858,44.02,4.697,0.486,17.91,107.9542,19.64,20.44,40.17,0,111.1,13.16,20.46,6.0
"2010-08-15 00:14:00",72329,3.426,31.49,7.23,0.249,17.99,107.9542,19.64,20.45,40.32,0,111.1,13.15,20.46,353.5
"2010-08-15 00:14:30",72330,3.626,32.25,5.858,0.563,17.99,107.9542,19.64,20.47,40.38,0,111.1,13.15,20.46,354.2
"2010-08-15 00:15:00",72331,4.707,45.3,2.969,0.255,17.9,107.9542,19.64,20.46,40.22,0,111.1,13.15,20.46,7.3
"2010-08-15 00:15:30",72332,3.889,50.67,4.507,0.449,18.04,107.9438,19.62,20.46,40.26,0,111.1,13.15,20.44,12.7
"2010-08-15 00:16:00",72333,3.273,47.06,3.118,0.254,17.97,107.9207,19.56,20.44,40.36,0,111.1,13.15,20.38,9.1
"2010-08-15 00:16:30",72334,3.031,46.29,4.486,0.181,18.03,107.9204,19.56,20.43,40.5,0,111.1,13.15,20.38,8.3
"2010-08-15 00:17:00",72335,3.647,49.09,4.776,0.345,18.1,107.9204,19.56,20.42,40.56,0,111.1,13.15,20.38,11.1
"2010-08-15 00:17:30",72336,3.747,45.96,4.232,0.278,18.01,107.9193,19.55,20.41,40.53,0,111.1,13.15,20.37,8.0
"2010-08-15 00:18:00",72337,3.055,42.78,4.396,0.289,17.95,107.8946,19.49,20.39,40.44,0,111.1,13.15,20.31,4.8
"2010-08-15 00:18:30",72338,2.056,30.96,6.512,0.312,18.03,107.8867,19.47,20.39,40.69,0,111.1,13.15,20.29,353.0
"2010-08-15 00:19:00",72339,2.7,27.84,5.472,0.441,17.95,107.8873,19.47,20.36,40.68,0,111.1,13.15,20.29,349.8
"2010-08-15 00:19:30",72340,2.955,28.71,3.98,0.359,17.92,107.8867,19.47,20.37,40.63,0,111.1,13.15,20.29,350.7
"2010-08-15 00:20:00",72341,2.518,25.62,4.051,0.324,17.92,107.8921,19.48,20.37,40.61,0,111.1,13.15,20.30,347.6
"2010-08-15 00:20:30",72342,2.716,30.76,3.405,0.299,17.91,107.9053,19.52,20.36,40.57,0,111.1,13.15,20.34,352.8
"2010-08-15 00:21:00",72343,3.104,26.39,5.796,0.169,17.82,107.9188,19.55,20.38,40.47,0,111.1,13.15,20.37,348.4
"2010-08-15 00:21:30",72344,2.748,23.62,3.179,0.278,17.89,107.921,19.56,20.41,40.37,0,111.1,13.15,20.38,345.6
"2010-08-15 00:22:00",72345,3.802,24.89,11.45,0.776,17.91,107.9376,19.6,20.43,40.31,0,111.1,13.15,20.42,346.9
"2010-08-15 00:22:30",72346,4.202,37.54,3.447,0.262,17.91,107.9337,19.59,20.43,40.31,0,111.1,13.15,20.41,359.5
"2010-08-15 00:23:00",72347,3.052,43.87,5.047,0.271,17.95,107.9233,19.56,20.45,40.28,0,111.1,13.15,20.38,5.9
"2010-08-15 00:23:30",72348,2.504,46.68,4.197,0.238,17.96,107.9204,19.56,20.43,40.38,0,111.1,13.15,20.38,8.7
"2010-08-15 00:24:00",72349,2.71,40.42,5.919,0.167,17.97,107.9202,19.55,20.43,40.37,0,111.1,13.15,20.38,2.4
"2010-08-15 00:24:30",72350,2.873,45.67,5.054,0.154,17.99,107.9148,19.54,20.41,40.31,0,111.1,13.15,20.36,7.7
"2010-08-15 00:25:00",72351,2.89,49.09,2.003,0.266,17.96,107.8943,19.49,20.4,40.26,0,111.1,13.16,20.31,11.1
"2010-08-15 00:25:30",72352,2.424,51.86,3.457,0.197,17.94,107.8867,19.47,20.39,40.33,0,111.1,13.16,20.29,13.9
"2010-08-15 00:26:00",72353,2.806,53.9,4.204,0.138,17.96,107.8851,19.46,20.36,40.42,0,111.1,13.16,20.28,15.9
"2010-08-15 00:26:30",72354,3.131,57.87,4.476,0.354,17.95,107.866,19.42,20.34,40.43,0,111.1,13.16,20.24,19.9
"2010-08-15 00:27:00",72355,3.017,65.9,3.738,0.249,17.98,107.8603,19.4,20.34,40.39,0,111.1,13.16,20.22,27.9
"2010-08-15 00:27:30",72356,2.103,61.27,5.593,0.298,18.01,107.8603,19.4,20.33,40.31,0,111.1,13.16,20.22,23.3
"2010-08-15 00:28:00",72357,2.297,61.59,5.592,0.187,17.96,107.8609,19.4,20.33,40.33,0,111.1,13.16,20.22,23.6
"2010-08-15 00:28:30",72358,2.459,47.11,4.163,0.257,17.93,107.8598,19.4,20.32,40.35,0,111.1,13.16,20.22,9.1
"2010-08-15 00:29:00",72359,2.202,51.07,3.811,0.246,17.92,107.8665,19.42,20.31,40.36,0,111.1,13.16,20.24,13.1
"2010-08-15 00:29:30",72360,2.238,57.08,5.632,0.174,17.94,107.8612,19.4,20.32,40.32,0,111.1,13.16,20.22,19.1
"2010-08-15 00:30:00",72361,2.074,66,2.95,0.096,17.97,107.8623,19.41,20.31,40.27,0,111.1,13.16,20.23,28.0
"2010-08-15 00:30:30",72362,2.077,57.64,6.131,0.125,17.96,107.8662,19.42,20.32,40.23,0,111.1,13.16,20.24,19.6
"2010-08-15 00:31:00",72363,1.789,43.32,4.359,0.217,18.03,107.8837,19.46,20.34,40.22,0,111.1,13.16,20.28,5.3
"2010-08-15 00:31:30",72364,1.654,40.23,6.33,0.362,17.95,107.9047,19.52,20.35,40.15,0,111.1,13.16,20.34,2.2
"2010-08-15 00:32:00",72365,0.949,22.14,13.2,0.198,17.9,107.9204,19.56,20.39,40.04,0,111.1,13.16,20.38,344.1
"2010-08-15 00:32:30",72366,1.58,29.22,5.919,0.213,17.92,107.9334,19.59,20.42,39.91,0,111.1,13.16,20.41,351.2
"2010-08-15 00:33:00",72367,1.61,32.25,11.51,0.239,17.91,107.9542,19.64,20.46,39.79,0,111.1,13.16,20.46,354.2
"2010-08-15 00:33:30",72368,1.743,8.7,8.33,0.333,17.95,107.9542,19.64,20.48,39.7,0,111.1,13.16,20.46,330.7
"2010-08-15 00:34:00",72369,1.366,8.87,6.68,0.143,18,107.9627,19.66,20.5,39.64,0,111.1,13.15,20.48,330.9
"2010-08-15 00:34:30",72370,1.487,358.2,8.02,0.164,17.92,107.9822,19.71,20.53,39.58,0,111.1,13.15,20.53,320.2
"2010-08-15 00:35:00",72371,1.435,359.8,12.35,0.6,18.05,107.9817,19.71,20.53,39.73,0,111.1,13.15,20.53,321.8
"2010-08-15 00:35:30",72372,1.005,23.33,9.25,0.422,18.06,107.9882,19.73,20.56,39.91,0,111.1,13.15,20.55,345.3
"2010-08-15 00:36:00",72373,0.362,35.37,20.06,0.246,18.16,107.9882,19.73,20.56,40.05,0,111.1,13.15,20.55,357.4
"2010-08-15 00:36:30",72374,0.916,23.12,14.4,0.369,17.91,107.989,19.73,20.59,39.87,0,111.1,13.15,20.55,345.1
"2010-08-15 00:37:00",72375,1.948,50.65,6.69,0.443,17.73,107.987,19.73,20.59,39.65,0,111.1,13.15,20.55,12.7
"2010-08-15 00:37:30",72376,2.492,41.16,10.72,0.439,17.79,107.9575,19.65,20.57,39.64,0,111.1,13.15,20.47,3.2
"2010-08-15 00:38:00",72377,2.886,32.02,9.85,0.478,17.96,107.9457,19.62,20.53,39.73,0,111.1,13.15,20.44,354.0
"2010-08-15 00:38:30",72378,3.174,31.76,4.38,0.485,18,107.9272,19.57,20.51,39.71,0,111.1,13.15,20.39,353.8
"2010-08-15 00:39:00",72379,3.787,37.89,2.853,0.38,18.01,107.9204,19.56,20.5,39.91,0,111.1,13.15,20.38,359.9
"2010-08-15 00:39:30",72380,4.034,38.39,2.736,0.205,18.09,107.9168,19.55,20.47,40.04,0,111.1,13.15,20.37,0.4
"2010-08-15 00:40:00",72381,3.504,35.65,2.176,0.342,18.17,107.903,19.51,20.45,39.93,0,111.1,13.15,20.33,357.6
"2010-08-15 00:40:30",72382,3.328,34.47,6.958,0.337,18.21,107.8884,19.47,20.43,40.14,0,111.1,13.15,20.29,356.5
"2010-08-15 00:41:00",72383,3.567,27.67,6.65,0.258,18.16,107.8867,19.47,20.41,40.18,0,111.1,13.15,20.29,349.7
"2010-08-15 00:41:30",72384,3.765,36.94,2.682,0.273,18.15,107.8867,19.47,20.38,40.02,0,111.1,13.16,20.29,358.9
"2010-08-15 00:42:00",72385,3.346,32.27,2.563,0.409,18.16,107.8862,19.47,20.38,39.99,0,111.1,13.16,20.29,354.3
"2010-08-15 00:42:30",72386,3.816,55.55,4.645,0.167,18.23,107.8828,19.46,20.36,40.09,0,111.1,13.15,20.28,17.5
"2010-08-15 00:43:00",72387,3.574,60.08,5.059,0.369,18.25,107.8848,19.46,20.36,40.11,0,111.1,13.16,20.28,22.1
"2010-08-15 00:43:30",72388,3.276,43.72,3.435,0.194,18.23,107.8877,19.47,20.36,40.07,0,111.1,13.16,20.29,5.7
"2010-08-15 00:44:00",72389,3.514,38.91,4.97,0.347,18.2,107.8898,19.48,20.38,40.02,0,111.1,13.15,20.30,0.9
"2010-08-15 00:44:30",72390,3.448,40,1.914,0.4,18.15,107.8909,19.48,20.39,39.97,0,111.1,13.15,20.30,2.0
"2010-08-15 00:45:00",72391,3.379,33.3,6.702,0.516,18.2,107.8955,19.49,20.38,40.02,0,111,13.16,20.31,355.3
"2010-08-15 00:45:30",72392,3.853,32.56,3.928,0.362,18.16,107.8974,19.5,20.35,40.07,0,111,13.16,20.32,354.6
"2010-08-15 00:46:00",72393,3.616,26.26,6.024,0.301,18.16,107.9016,19.51,20.35,40.1,0,111,13.16,20.33,348.3
"2010-08-15 00:46:30",72394,3.268,33.02,8.64,0.544,18.21,107.9065,19.52,20.36,40.15,0,111.1,13.16,20.34,355.0
"2010-08-15 00:47:00",72395,3.776,41.06,3.24,0.233,18.31,107.8921,19.48,20.35,40.22,0,111,13.16,20.30,3.1
"2010-08-15 00:47:30",72396,3.668,45.75,4.03,0.303,18.27,107.881,19.45,20.33,40.25,0,111,13.16,20.27,7.8
"2010-08-15 00:48:00",72397,3.316,44.58,8.23,0.462,18.24,107.8797,19.45,20.32,40.19,0,111,13.16,20.27,6.6
"2010-08-15 00:48:30",72398,2.987,41.78,13.78,0.467,18.29,107.8797,19.45,20.32,40.19,0,111,13.16,20.27,3.8
"2010-08-15 00:49:00",72399,2.669,31.55,4.759,0.421,18.24,107.8803,19.45,20.3,40.23,0,111,13.16,20.27,353.5
"2010-08-15 00:49:30",72400,4.061,38.91,1.329,0.302,18.16,107.8803,19.45,20.29,40.26,0,111,13.16,20.27,0.9
"2010-08-15 00:50:00",72401,3.787,39.83,3.42,0.221,18.18,107.8806,19.45,20.31,40.25,0,111,13.16,20.27,1.8
"2010-08-15 00:50:30",72402,3.281,32.77,4.736,0.506,18.19,107.8812,19.46,20.29,40.2,0,111,13.16,20.27,354.8
"2010-08-15 00:51:00",72403,3.332,23.04,4.81,0.487,18.2,107.8725,19.43,20.27,40.2,0,111,13.16,20.25,345.0
"2010-08-15 00:51:30",72404,3.752,18.74,2.997,0.585,18.26,107.8775,19.45,20.27,40.23,0,111,13.15,20.27,340.7
"2010-08-15 00:52:00",72405,3.736,26.18,4.9,0.411,18.29,107.8811,19.45,20.29,40.27,0,111,13.15,20.27,348.2
"2010-08-15 00:52:30",72406,3.426,31.88,3.69,0.415,18.35,107.8617,19.4,20.27,40.3,0,111,13.15,20.22,353.9
"2010-08-15 00:53:00",72407,2.932,24.62,2.889,0.382,18.44,107.8545,19.39,20.24,40.31,0,111,13.15,20.21,346.6
"2010-08-15 00:53:30",72408,3.364,19.23,4.201,0.492,18.55,107.8554,19.39,20.24,40.31,0,111,13.15,20.21,341.2
"2010-08-15 00:54:00",72409,3.54,19.11,3.087,0.373,18.66,107.8557,19.39,20.25,40.33,0,111,13.15,20.21,341.1
"2010-08-15 00:54:30",72410,3.297,30.51,8.61,0.507,18.66,107.8557,19.39,20.24,40.32,0,111,13.15,20.21,352.5
"2010-08-15 00:55:00",72411,4.17,46.7,3.176,0.19,18.77,107.8546,19.39,20.23,40.32,0,111,13.15,20.21,8.7
"2010-08-15 00:55:30",72412,3.908,48.25,3.383,0.46,18.75,107.8346,19.34,20.22,40.39,0,111,13.15,20.15,10.2
"2010-08-15 00:56:00",72413,3.703,52.35,3.027,0.345,18.8,107.822,19.3,20.19,40.43,0,111,13.15,20.12,14.3
"2010-08-15 00:56:30",72414,3.767,44.9,4.86,0.287,18.82,107.822,19.3,20.19,40.48,0,111,13.16,20.12,6.9
"2010-08-15 00:57:00",72415,2.917,30.91,3.086,0.339,18.78,107.8211,19.3,20.17,40.47,0,111,13.16,20.12,352.9
"2010-08-15 00:57:30",72416,2.661,30.6,2.949,0.221,18.76,107.7984,19.24,20.15,40.5,0,111,13.16,20.06,352.6
"2010-08-15 00:58:00",72417,2.952,32.53,2.345,0.303,18.79,107.7883,19.22,20.13,40.53,0,111,13.16,20.04,354.5
"2010-08-15 00:58:30",72418,3.114,38.43,2.864,0.199,18.79,107.7883,19.22,20.1,40.6,0,111,13.16,20.04,0.4
"2010-08-15 00:59:00",72419,2.956,43.78,1.4,0.115,18.8,107.7813,19.2,20.1,40.69,0,111,13.16,20.02,5.8
"2010-08-15 00:59:30",72420,3.335,40.24,4.913,0.271,18.82,107.7686,19.17,20.08,40.69,0,111,13.16,19.98,2.2
"2010-08-15 01:00:00",72421,3.396,36.76,2.354,0.165,18.84,107.7675,19.16,20.08,40.72,0,111,13.16,19.98,358.8
"2010-08-15 01:00:30",72422,3.083,35.88,2.305,0.23,18.84,107.7748,19.18,20.07,40.69,0,111,13.16,20.00,357.9
"2010-08-15 01:01:00",72423,2.835,33.62,3.48,0.272,18.82,107.7861,19.21,20.07,40.68,0,111,13.16,20.03,355.6
"2010-08-15 01:01:30",72424,3.733,38.39,4.105,0.38,18.8,107.7874,19.21,20.09,40.65,0,111,13.17,20.03,0.4
"2010-08-15 01:02:00",72425,3.713,45.56,2.168,0.168,18.8,107.7729,19.18,20.07,40.66,0,111,13.17,20.00,7.6
"2010-08-15 01:02:30",72426,3.136,47.12,5.291,0.296,18.82,107.7708,19.17,20.07,40.68,0,111,13.17,19.99,9.1
"2010-08-15 01:03:00",72427,3.35,51.03,5.483,0.273,18.86,107.7703,19.17,20.06,40.71,0,111,13.17,19.99,13.0
"2010-08-15 01:03:30",72428,3.384,40.24,3.329,0.224,18.77,107.7764,19.19,20.04,40.71,0,111,13.17,20.01,2.2
"2010-08-15 01:04:00",72429,2.7,60.18,4.848,0.392,18.92,107.7797,19.19,20.05,40.85,0,111,13.17,20.01,22.2
"2010-08-15 01:04:30",72430,2.68,45.43,2.083,0.223,18.8,107.7809,19.2,20.04,40.78,0,111,13.17,20.02,7.4
"2010-08-15 01:05:00",72431,3.013,43.23,2.449,0.195,18.84,107.7753,19.18,20.03,40.81,0,110.9,13.18,20.00,5.2
"2010-08-15 01:05:30",72432,3.075,40.49,5.006,0.401,18.83,107.77,19.17,20.02,40.87,0,110.9,13.18,19.99,2.5
"2010-08-15 01:06:00",72433,3.044,35.99,3.597,0.403,18.86,107.77,19.17,20.02,40.92,0,110.9,13.18,19.99,358.0
"2010-08-15 01:06:30",72434,3.045,42.68,3.992,0.139,18.88,107.7736,19.18,20.02,40.9,0,110.9,13.18,20.00,4.7
"2010-08-15 01:07:00",72435,2.653,45.69,1.056,0.086,18.89,107.7765,19.19,20.01,40.86,0,110.9,13.18,20.01,7.7
"2010-08-15 01:07:30",72436,2.76,42.81,1.456,0.172,18.92,107.7802,19.2,20.02,40.87,0,110.9,13.18,20.01,4.8
"2010-08-15 01:08:00",72437,2.738,43.48,1.033,0.168,18.89,107.7811,19.2,20.01,40.86,0,110.9,13.18,20.02,5.5
"2010-08-15 01:08:30",72438,2.382,46.6,1.255,0.171,18.86,107.7805,19.2,20.04,40.84,0,110.9,13.18,20.02,8.6
"2010-08-15 01:09:00",72439,2.469,44.79,1.201,0.133,18.97,107.7808,19.2,20.05,40.79,0,110.9,13.18,20.02,6.8
"2010-08-15 01:09:30",72440,2.583,35.84,5.094,0.278,18.86,107.7788,19.19,20.04,40.84,0,110.9,13.17,20.01,357.8
"2010-08-15 01:10:00",72441,2.25,29.6,3.893,0.267,18.9,107.776,19.19,20.05,40.86,0,110.9,13.17,20.00,351.6
"2010-08-15 01:10:30",72442,2.677,33.47,2.692,0.329,18.89,107.7729,19.18,20.05,40.88,0,110.9,13.17,20.00,355.5
"2010-08-15 01:11:00",72443,2.469,24.52,3.109,0.266,18.88,107.7625,19.15,20.05,40.89,0,110.9,13.17,19.97,346.5
"2010-08-15 01:11:30",72444,2.498,29.91,3.365,0.522,18.89,107.758,19.14,20.04,40.87,0,110.9,13.18,19.96,351.9
"2010-08-15 01:12:00",72445,2.354,37.69,2.962,0.246,18.88,107.759,19.14,20.03,40.89,0,110.9,13.18,19.96,359.7
"2010-08-15 01:12:30",72446,2.3,55.07,5.35,0.189,19.01,107.762,19.15,20.01,40.97,0,110.9,13.18,19.97,17.1
"2010-08-15 01:13:00",72447,2.97,45.78,5.165,0.479,18.92,107.769,19.17,20.04,40.9,0,110.9,13.18,19.99,7.8
"2010-08-15 01:13:30",72448,3.171,43.22,2.155,0.119,18.92,107.7729,19.18,20.05,40.83,0,110.9,13.18,20.00,5.2
"2010-08-15 01:14:00",72449,2.923,38.57,3.151,0.129,18.85,107.7775,19.19,20.05,40.8,0,110.9,13.18,20.01,0.6
"2010-08-15 01:14:30",72450,2.293,28.27,4.395,0.259,18.83,107.7835,19.2,20.04,40.76,0,110.9,13.18,20.02,350.3
"2010-08-15 01:15:00",72451,2.596,35.18,2.697,0.138,18.86,107.7703,19.17,20.03,40.81,0,110.9,13.19,19.99,357.2
"2010-08-15 01:15:30",72452,2.288,32.13,4.667,0.376,18.86,107.7552,19.13,20.03,40.8,0,110.9,13.19,19.95,354.1
"2010-08-15 01:16:00",72453,2.493,37.32,1.586,0.154,18.89,107.7534,19.13,20.01,40.91,0,110.9,13.19,19.95,359.3
"2010-08-15 01:16:30",72454,2.243,38.26,2.923,0.106,18.83,107.758,19.14,20.01,40.93,0,110.9,13.19,19.96,0.3
"2010-08-15 01:17:00",72455,2.078,35.4,2.391,0.17,18.87,107.7598,19.14,20,40.97,0,110.9,13.19,19.96,357.4
"2010-08-15 01:17:30",72456,2.077,37.02,1.92,0.087,18.96,107.7598,19.14,20,40.95,0,110.9,13.2,19.96,359.0
"2010-08-15 01:18:00",72457,1.509,35.64,6.985,0.288,18.88,107.7598,19.14,19.99,40.92,0,110.9,13.2,19.96,357.6
"2010-08-15 01:18:30",72458,1.73,39.85,3.208,0.117,18.89,107.7598,19.14,19.98,40.94,0,110.9,13.2,19.96,1.8
"2010-08-15 01:19:00",72459,2.219,38.89,2.854,0.347,18.77,107.7592,19.14,19.98,40.91,0,110.9,13.2,19.96,0.9
"2010-08-15 01:19:30",72460,2.415,38.93,1.304,0.136,18.79,107.7536,19.13,19.99,40.94,0,110.8,13.2,19.95,0.9
"2010-08-15 01:20:00",72461,2.481,37.45,1.701,0.106,18.83,107.7404,19.09,19.97,40.9,0,110.8,13.2,19.91,359.5
"2010-08-15 01:20:30",72462,2.766,37.71,2.012,0.307,18.89,107.726,19.06,19.97,40.96,0,110.8,13.2,19.88,359.7
"2010-08-15 01:21:00",72463,3.136,38.09,2.753,0.329,18.84,107.726,19.06,19.96,41,0,110.8,13.2,19.88,0.1
"2010-08-15 01:21:30",72464,2.519,35.15,2.373,0.263,18.85,107.726,19.06,19.95,41.01,0,110.8,13.2,19.88,357.1
"2010-08-15 01:22:00",72465,2.036,28.97,4.631,0.375,18.87,107.726,19.06,19.94,41.05,0,110.8,13.2,19.88,351.0
"2010-08-15 01:22:30",72466,2.06,24.76,4.005,0.283,18.89,107.7263,19.06,19.95,41.05,0,110.8,13.2,19.88,346.8
"2010-08-15 01:23:00",72467,2.311,30.12,4.741,0.465,18.83,107.7269,19.06,19.94,41.13,0,110.8,13.2,19.88,352.1
"2010-08-15 01:23:30",72468,2.454,33.2,2.514,0.189,18.96,107.7279,19.06,19.93,41.23,0,110.8,13.2,19.88,355.2
"2010-08-15 01:24:00",72469,1.817,27.11,3.077,0.246,18.88,107.7243,19.05,19.93,41.18,0,110.8,13.2,19.87,349.1
"2010-08-15 01:24:30",72470,2.217,31.73,2.992,0.277,18.9,107.706,19.01,19.93,41.17,0,110.8,13.2,19.82,353.7
"2010-08-15 01:25:00",72471,2.411,29.58,2.197,0.109,18.96,107.7068,19.01,19.91,41.17,0,110.8,13.2,19.83,351.6
"2010-08-15 01:25:30",72472,2.394,30.3,2.184,0.378,18.83,107.7112,19.02,19.91,41.18,0,110.8,13.2,19.84,352.3
"2010-08-15 01:26:00",72473,2.635,28.47,1.587,0.278,18.86,107.7102,19.02,19.91,41.17,0,110.8,13.2,19.83,350.5
"2010-08-15 01:26:30",72474,2.809,28.95,1.498,0.249,18.89,107.7187,19.04,19.91,41.16,0,110.8,13.2,19.86,351.0
"2010-08-15 01:27:00",72475,2.575,28.76,1.88,0.352,18.87,107.7202,19.04,19.9,41.16,0,110.8,13.2,19.86,350.8
"2010-08-15 01:27:30",72476,2.693,33,2.42,0.191,18.9,107.7217,19.05,19.89,41.26,0,110.8,13.2,19.86,355.0
"2010-08-15 01:28:00",72477,2.396,31.58,2.619,0.342,18.93,107.725,19.05,19.89,41.28,0,110.8,13.21,19.87,353.6
"2010-08-15 01:28:30",72478,2.574,33.02,4.497,0.222,18.93,107.7274,19.06,19.88,41.3,0,110.8,13.21,19.88,355.0
"2010-08-15 01:29:00",72479,2.487,32.23,2.139,0.236,18.91,107.728,19.06,19.89,41.27,0,110.8,13.21,19.88,354.2
"2010-08-15 01:29:30",72480,2.652,35.86,3.755,0.096,18.93,107.7286,19.06,19.89,41.28,0,110.8,13.2,19.88,357.9
"2010-08-15 01:30:00",72481,2.45,32.22,1.57,0.3,18.9,107.7286,19.06,19.89,41.23,0,110.8,13.21,19.88,354.2
"2010-08-15 01:30:30",72482,2.186,28.81,1.668,0.182,18.94,107.7286,19.06,19.9,41.21,0,110.8,13.21,19.88,350.8
"2010-08-15 01:31:00",72483,2.19,32.54,3.444,0.292,18.89,107.7286,19.06,19.92,41.21,0,110.8,13.21,19.88,354.5
"2010-08-15 01:31:30",72484,2.651,35.52,3.03,0.197,18.93,107.7286,19.06,19.92,41.24,0,110.8,13.21,19.88,357.5
"2010-08-15 01:32:00",72485,2.924,37.45,3.498,0.171,18.95,107.7286,19.06,19.92,41.25,0,110.8,13.21,19.88,359.5
"2010-08-15 01:32:30",72486,2.693,37.56,2.815,0.197,18.95,107.7295,19.07,19.93,41.24,0,110.8,13.21,19.88,359.6
"2010-08-15 01:33:00",72487,2.443,42.65,3.494,0.223,18.97,107.7346,19.08,19.94,41.2,0,110.8,13.21,19.90,4.7
"2010-08-15 01:33:30",72488,2.228,39.85,2.276,0.1,18.96,107.7371,19.09,19.95,41.17,0,110.8,13.21,19.90,1.8
"2010-08-15 01:34:00",72489,2.202,39.81,1.81,0.09,18.98,107.7402,19.09,19.97,41.16,0,110.8,13.21,19.91,1.8
"2010-08-15 01:34:30",72490,2.237,36.28,1.992,0.302,18.96,107.7472,19.11,19.97,41.12,0,110.8,13.21,19.93,358.3
"2010-08-15 01:35:00",72491,2.398,39.05,1.821,0.112,18.96,107.752,19.12,19.97,41.1,0,110.8,13.21,19.94,1.0
"2010-08-15 01:35:30",72492,2.039,36.2,4.886,0.35,18.98,107.7486,19.11,19.98,41.09,0,110.8,13.21,19.93,358.2
"2010-08-15 01:36:00",72493,1.591,28.43,3.166,0.213,18.95,107.7458,19.11,19.98,41.05,0,110.8,13.21,19.93,350.4
"2010-08-15 01:36:30",72494,2.241,36.19,1.812,0.181,18.93,107.7382,19.09,19.97,41.03,0,110.8,13.21,19.91,358.2
"2010-08-15 01:37:00",72495,2.238,34.96,1.453,0.15,18.94,107.7398,19.09,19.97,41.01,0,110.8,13.21,19.91,357.0
"2010-08-15 01:37:30",72496,2.255,35.98,0.616,0.055,18.98,107.7406,19.09,19.99,41,0,110.8,13.21,19.91,358.0
"2010-08-15 01:38:00",72497,2.014,34.44,1.222,0.101,18.97,107.7452,19.11,19.98,40.99,0,110.8,13.21,19.92,356.4
"2010-08-15 01:38:30",72498,2.088,35.72,2.023,0.14,18.96,107.7519,19.12,19.98,40.96,0,110.8,13.21,19.94,357.7
"2010-08-15 01:39:00",72499,1.955,44.82,2.953,0.093,18.96,107.7573,19.14,20,41,0,110.8,13.21,19.96,6.8
"2010-08-15 01:39:30",72500,1.656,45.22,2.185,0.103,19.09,107.7629,19.15,19.99,40.99,0,110.8,13.21,19.97,7.2
"2010-08-15 01:40:00",72501,1.825,40.98,2.616,0.142,18.96,107.7669,19.16,20,40.97,0,110.8,13.21,19.98,3.0
"2010-08-15 01:40:30",72502,1.779,37.23,2.465,0.188,18.92,107.7663,19.16,20,40.95,0,110.8,13.21,19.98,359.2
"2010-08-15 01:41:00",72503,1.542,33.41,3.817,0.329,18.9,107.7641,19.15,20,40.91,0,110.8,13.22,19.97,355.4
"2010-08-15 01:41:30",72504,1.356,30.57,2.682,0.211,18.91,107.7574,19.14,20,40.9,0,110.8,13.22,19.96,352.6
"2010-08-15 01:42:00",72505,1.536,32.1,2.126,0.183,18.9,107.7608,19.15,20,40.89,0,110.8,13.22,19.96,354.1
"2010-08-15 01:42:30",72506,1.48,29.55,2.21,0.185,18.92,107.7626,19.15,19.99,40.87,0,110.8,13.21,19.97,351.5
"2010-08-15 01:43:00",72507,1.406,29.64,2.636,0.199,18.93,107.7647,19.16,19.99,40.9,0,110.7,13.21,19.97,351.6
"2010-08-15 01:43:30",72508,1.633,31.21,1.989,0.211,18.95,107.765,19.16,19.99,40.89,0,110.7,13.21,19.98,353.2
"2010-08-15 01:44:00",72509,1.603,32.32,2.624,0.223,18.95,107.7647,19.16,19.98,40.96,0,110.7,13.21,19.97,354.3
"2010-08-15 01:44:30",72510,1.52,30.6,3.253,0.25,18.99,107.765,19.16,19.99,40.94,0,110.7,13.21,19.98,352.6
"2010-08-15 01:45:00",72511,1.447,30.82,2.642,0.167,18.98,107.765,19.16,19.99,40.95,0,110.7,13.21,19.98,352.8
"2010-08-15 01:45:30",72512,1.562,32.6,3.205,0.233,18.95,107.765,19.16,19.97,40.93,0,110.7,13.21,19.98,354.6
"2010-08-15 01:46:00",72513,1.336,28.16,2.361,0.083,18.99,107.765,19.16,19.98,40.9,0,110.7,13.21,19.98,350.2
"2010-08-15 01:46:30",72514,1.35,29.15,1.855,0.094,18.95,107.7628,19.15,19.98,40.88,0,110.7,13.21,19.97,351.1
"2010-08-15 01:47:00",72515,1.32,26.59,2.389,0.087,18.94,107.7588,19.14,19.97,40.88,0,110.7,13.21,19.96,348.6
"2010-08-15 01:47:30",72516,1.273,29.55,1.983,0.071,18.97,107.7495,19.12,19.99,40.93,0,110.7,13.21,19.94,351.5
"2010-08-15 01:48:00",72517,1.307,28.51,2.268,0.087,18.97,107.7422,19.1,19.97,40.91,0,110.7,13.22,19.92,350.5
"2010-08-15 01:48:30",72518,1.312,28.11,1.632,0.085,18.97,107.74,19.09,19.98,40.93,0,110.7,13.22,19.91,350.1
"2010-08-15 01:49:00",72519,1.464,27.35,1.953,0.13,18.96,107.7408,19.09,19.96,40.91,0,110.7,13.22,19.91,349.4
"2010-08-15 01:49:30",72520,1.3,29.34,2.146,0.119,18.97,107.7397,19.09,19.97,40.92,0,110.7,13.22,19.91,351.3
"2010-08-15 01:50:00",72521,1.326,26.34,2.838,0.149,18.94,107.7391,19.09,19.99,40.93,0,110.7,13.22,19.91,348.3